Location: Munkebjergskolens Observatorium
(55.3864°N, 10.3987°E)
Time: 04:28:51
(UTC+02:00)

QB50P2 - Pass Details

Date: 02 April 2023
Orbit: 581 x 596 km, 98.0° (Epoch: 31 May)

Event Time Altitude Azimuth Distance (km) Brightness Sun altitude
Rises 05:05:18 0° 5° (N) 2,843 ? -14.4°
Reaches altitude 10° 05:08:13 10° 343° (NNW) 1,933 ? -14.1°
Maximum altitude 05:10:39 15° 307° (NW) 1,605 ? -13.8°
Enters shadow 05:12:09 13° 283° (WNW) 1,730 ? -13.6°
